Location: Unspecified
(43.4680°N, 87.1740°E)
Time: 20:36:36
(UTC+00:00)

Okean 2 Rocket - Pass Details

Date: 17 April 2021
Orbit: 616 x 642 km, 82.5° (Epoch: 11 May)

Event Time Altitude Azimuth Distance (km) Brightness Sun altitude
Rises 21:40:52 0° 353° (N) 2,927 6.9 -17.7°
Reaches altitude 10° 21:43:08 10° 355° (N) 2,011 6.1 -17.4°
Maximum altitude 21:47:35 73° 81° (E) 654 3.3 -16.7°
Drops below altitude 10° 21:51:58 10° 166° (SSE) 1,980 5.5 -16.1°
Sets 21:54:11 0° 169° (SSE) 2,878 6.3 -15.7°
